Flag for U.S.A. Weather past 2 weeks in Palm Springs, California, U.S.A.

Now
47 °F

Clear.


Feels Like: 44 °F
Forecast: 38 / 60 °F
Wind: 6 mph from Northwest

Location: Palm Springs Regional Airport

Current Time: Dec 27, 2014 at 11:27:45 PM

Latest Report: Dec 27, 2014 at 10:53 PM


Visibility: 10 mi

Pressure: 30.36 "Hg

Humidity: 29%

Dew point: 16 °F

Location of Palm SpringsLocation

Historic Weather in Palm Springs — Graph

°F

Palm Springs temperature yesterday

Maximum temperature yesterday: 61 °F (at 11:53 AM)
Minimum temperature yesterday: 47 °F (at 3:53 AM)
Average temperature yesterday: 55 °F

Past Weeks' High & Low Weather Summary

 TemperatureHumidityPressure
High81 °F (Dec 23, 12:53 PM)93% (Dec 13, 1:53 AM)30.44 "Hg (Dec 13, 1:53 AM)
Low45 °F (Dec 27, 9:53 PM)10% (Dec 25, 1:53 PM)29.69 "Hg (Dec 25, 3:53 AM)
Average58 °F48%30.09 "Hg
* Reported Dec 12 9:53 PM — Dec 27 9:53 PM, Palm Springs, Weather by CustomWeather, © 2014

Note: Actual official high and low records may vary slightly from our data, if they occured in-between our weather recording intervals... More about our weather records

Advertising

Palm Springs weather history for previous 24 hours

 ConditionsComfort  
Time TempWeatherWind HumidityBarometerVisibility
9:53 PM
Dec 27
45 °FClear.3 mph34%30.37 "Hg10 mi
8:53 PM47 °FClear.5 mph30%30.37 "Hg10 mi
7:53 PM51 °FClear.6 mph21%30.38 "Hg10 mi
6:53 PM53 °FClear.5 mph19%30.37 "Hg10 mi
5:53 PM51 °FClear.3 mph26%30.36 "Hg10 mi
4:53 PM56 °FClear.3 mph18%30.33 "Hg10 mi
3:53 PM59 °FSunny.6 mph12%30.33 "Hg10 mi
2:53 PM60 °FSunny.6 mph11%30.33 "Hg10 mi
1:53 PM58 °FSunny.No wind12%30.34 "Hg10 mi
12:53 PM58 °FSunny.3 mph12%30.36 "Hg10 mi
11:53 AM57 °FSunny.6 mph13%30.38 "Hg10 mi
10:53 AM56 °FSunny.6 mph14%30.43 "Hg10 mi
9:53 AM56 °FSunny.7 mph14%30.44 "Hg10 mi
8:53 AM54 °FSunny.No wind16%30.42 "Hg10 mi
7:53 AM52 °FSunny.13 mph17%30.40 "Hg10 mi
6:53 AM51 °FSunny.14 mph17%30.37 "Hg10 mi
5:53 AM52 °FClear.8 mph16%30.36 "Hg10 mi
4:53 AM53 °FClear.3 mph15%30.33 "Hg10 mi
3:53 AM52 °FClear.6 mph17%30.32 "Hg10 mi
2:53 AM50 °FClear.No wind22%30.31 "Hg10 mi
1:53 AM50 °FClear.9 mph22%30.29 "Hg10 mi
12:53 AM52 °FClear.12 mph19%30.27 "Hg10 mi
11:53 PM
Dec 26
54 °FClear.6 mph18%30.26 "Hg10 mi
Weather by CustomWeather, © 2014

See weather overviewHow to use our weather pages